UAL725 KLAX-KFAT

Flight info

Callsign UAL725
Flight time 0h 42m
Altitude 27000
Route LADYJ4 CSTRO TTE ALTTA9
Aircraft A320/M-SDE3FGHIRWY/LB1

Departure

Time 2026-04-21 21:10
Airport Los Angeles International Airport (KLAX)

Arrival

Time 2026-04-21 21:52
Airport Fresno Yosemite International Airport (KFAT)
Time Latitude Longitude Altitude Speed Heading
2026-04-21 20:32 33.94159 -118.40022 93 ft 0 kts 90°
2026-04-21 20:54 33.94159 -118.40023 93 ft 2 kts 91°
2026-04-21 20:54 33.94156 -118.40051 92 ft 4 kts 64°
2026-04-21 20:54 33.94147 -118.40072 92 ft 4 kts 88°
2026-04-21 20:54 33.94155 -118.40085 92 ft 3 kts 173°
2026-04-21 20:55 33.94172 -118.40087 91 ft 0 kts 173°
2026-04-21 20:58 33.94161 -118.40086 92 ft 5 kts 173°
2026-04-21 20:58 33.94119 -118.40080 93 ft 8 kts 173°
2026-04-21 20:58 33.94060 -118.40071 93 ft 9 kts 173°
2026-04-21 20:58 33.93990 -118.40061 95 ft 11 kts 172°
2026-04-21 20:59 33.93964 -118.39985 94 ft 12 kts 83°
2026-04-21 20:59 33.93975 -118.39875 94 ft 14 kts 83°
2026-04-21 20:59 33.93987 -118.39744 94 ft 17 kts 84°
2026-04-21 20:59 33.93999 -118.39617 95 ft 12 kts 82°
2026-04-21 21:00 33.94011 -118.39515 93 ft 13 kts 82°
2026-04-21 21:00 33.94022 -118.39406 93 ft 10 kts 83°
2026-04-21 21:00 33.94028 -118.39342 93 ft 7 kts 83°
2026-04-21 21:00 33.94032 -118.39302 93 ft 6 kts 83°
2026-04-21 21:01 33.94038 -118.39244 94 ft 8 kts 83°
2026-04-21 21:01 33.94046 -118.39165 93 ft 11 kts 83°
2026-04-21 21:01 33.94054 -118.39079 93 ft 11 kts 83°
2026-04-21 21:01 33.94056 -118.38981 93 ft 13 kts 83°
2026-04-21 21:02 33.94068 -118.38864 93 ft 15 kts 83°
2026-04-21 21:02 33.94082 -118.38732 94 ft 17 kts 83°
2026-04-21 21:02 33.94097 -118.38583 93 ft 19 kts 83°
2026-04-21 21:02 33.94110 -118.38453 94 ft 16 kts 83°
2026-04-21 21:03 33.94101 -118.38357 94 ft 12 kts 137°
2026-04-21 21:03 33.94054 -118.38278 96 ft 12 kts 90°
2026-04-21 21:03 33.94066 -118.38165 94 ft 14 kts 83°
2026-04-21 21:03 33.94074 -118.38084 93 ft 8 kts 82°
2026-04-21 21:04 33.94078 -118.38029 93 ft 6 kts 95°
2026-04-21 21:04 33.94075 -118.38022 93 ft 0 kts 119°
2026-04-21 21:08 33.94074 -118.38020 93 ft 1 kts 119°
2026-04-21 21:08 33.94043 -118.37999 94 ft 8 kts 167°
2026-04-21 21:08 33.93986 -118.38016 93 ft 10 kts 243°
2026-04-21 21:09 33.93975 -118.38108 94 ft 12 kts 263°
2026-04-21 21:09 33.93953 -118.38314 99 ft 51 kts 262°
2026-04-21 21:09 33.93882 -118.39024 96 ft 117 kts 263°
2026-04-21 21:09 33.93758 -118.40195 198 ft 155 kts 258°
2026-04-21 21:10 33.93616 -118.41469 857 ft 153 kts 259°
2026-04-21 21:10 33.93483 -118.42751 1531 ft 158 kts 258°
2026-04-21 21:10 33.93340 -118.44155 1901 ft 180 kts 258°
2026-04-21 21:10 33.93179 -118.45751 2227 ft 203 kts 259°
2026-04-21 21:11 33.93013 -118.47522 2569 ft 228 kts 260°
2026-04-21 21:11 33.92845 -118.49519 3149 ft 247 kts 262°
2026-04-21 21:11 33.92679 -118.51607 4084 ft 253 kts 262°
2026-04-21 21:11 33.92512 -118.53719 5106 ft 254 kts 262°
2026-04-21 21:12 33.92339 -118.55851 6106 ft 257 kts 261°
2026-04-21 21:12 33.92162 -118.57991 6645 ft 255 kts 262°
2026-04-21 21:12 33.92086 -118.60135 7008 ft 258 kts 272°
2026-04-21 21:12 33.92609 -118.62241 7271 ft 268 kts 294°
2026-04-21 21:13 33.93771 -118.63998 7528 ft 279 kts 315°
2026-04-21 21:13 33.95454 -118.65258 7782 ft 288 kts 327°
2026-04-21 21:13 33.97232 -118.66415 7960 ft 290 kts 326°
2026-04-21 21:13 33.99126 -118.67321 8013 ft 295 kts 340°
2026-04-21 21:14 34.01156 -118.67624 8000 ft 301 kts 356°
2026-04-21 21:14 34.03257 -118.67486 7995 ft 302 kts 359°
2026-04-21 21:14 34.05359 -118.67346 8013 ft 302 kts 358°
2026-04-21 21:14 34.07456 -118.67202 8032 ft 304 kts
2026-04-21 21:15 34.09563 -118.66730 8826 ft 309 kts
2026-04-21 21:15 34.11691 -118.66218 9746 ft 313 kts
2026-04-21 21:15 34.13875 -118.65717 10307 ft 330 kts
2026-04-21 21:15 34.16189 -118.65197 10576 ft 352 kts
2026-04-21 21:16 34.18647 -118.64633 11093 ft 365 kts
2026-04-21 21:16 34.21160 -118.64042 11784 ft 371 kts
2026-04-21 21:16 34.23726 -118.63603 12582 ft 372 kts 356°
2026-04-21 21:16 34.26295 -118.63697 13357 ft 367 kts 344°
2026-04-21 21:17 34.28808 -118.64235 14114 ft 367 kts 340°
2026-04-21 21:17 34.31326 -118.64818 14821 ft 369 kts 340°
2026-04-21 21:17 34.33871 -118.65409 15509 ft 373 kts 339°
2026-04-21 21:17 34.36401 -118.65998 16153 ft 377 kts 339°
2026-04-21 21:18 34.38992 -118.66595 16812 ft 379 kts 339°
2026-04-21 21:18 34.41612 -118.67194 17515 ft 383 kts 339°
2026-04-21 21:18 34.44253 -118.67783 18182 ft 387 kts 340°
2026-04-21 21:18 34.46888 -118.68320 18773 ft 391 kts 340°
2026-04-21 21:19 34.49596 -118.68841 19353 ft 396 kts 340°
2026-04-21 21:19 34.52338 -118.69354 19924 ft 400 kts 340°
2026-04-21 21:19 34.55107 -118.69875 20509 ft 405 kts 340°
2026-04-21 21:19 34.57907 -118.70408 21081 ft 409 kts 340°
2026-04-21 21:20 34.60735 -118.70952 21687 ft 413 kts 340°
2026-04-21 21:20 34.63557 -118.71503 22229 ft 417 kts 340°
2026-04-21 21:20 34.66447 -118.72066 22763 ft 423 kts 340°
2026-04-21 21:20 34.69361 -118.72658 23259 ft 424 kts 337°
2026-04-21 21:21 34.72172 -118.73626 23768 ft 415 kts 328°
2026-04-21 21:21 34.74779 -118.75058 24207 ft 406 kts 319°
2026-04-21 21:21 34.77236 -118.76755 24669 ft 407 kts 318°
2026-04-21 21:21 34.79706 -118.78467 25122 ft 410 kts 318°
2026-04-21 21:22 34.82197 -118.80190 25529 ft 413 kts 318°
2026-04-21 21:22 34.84716 -118.81922 25913 ft 417 kts 318°
2026-04-21 21:22 34.87241 -118.83649 26018 ft 414 kts 318°
2026-04-21 21:22 34.89727 -118.85334 26042 ft 404 kts 318°
2026-04-21 21:23 34.91348 -118.86432 26042 ft 401 kts 318°
2026-04-21 21:23 34.94577 -118.88641 26040 ft 399 kts 317°
2026-04-21 21:23 34.96997 -118.90316 26042 ft 399 kts 317°
2026-04-21 21:23 34.99413 -118.91996 26051 ft 398 kts 317°
2026-04-21 21:24 35.01801 -118.93653 26041 ft 400 kts 317°
2026-04-21 21:24 35.04223 -118.95328 26038 ft 400 kts 317°
2026-04-21 21:24 35.05861 -118.96461 26055 ft 399 kts 317°
2026-04-21 21:24 35.08243 -118.98101 26038 ft 395 kts 317°
2026-04-21 21:25 35.10642 -118.99753 26035 ft 394 kts 317°
2026-04-21 21:25 35.13005 -119.01384 26039 ft 393 kts 317°
2026-04-21 21:25 35.15390 -119.03039 26042 ft 393 kts 317°
2026-04-21 21:25 35.17771 -119.04696 26053 ft 393 kts 317°
2026-04-21 21:26 35.20150 -119.06352 26097 ft 394 kts 317°
2026-04-21 21:26 35.22539 -119.08016 26055 ft 394 kts 317°
2026-04-21 21:26 35.24925 -119.09676 26048 ft 395 kts 317°
2026-04-21 21:26 35.27291 -119.11323 26046 ft 395 kts 317°
2026-04-21 21:27 35.29688 -119.12993 26044 ft 395 kts 317°
2026-04-21 21:27 35.32086 -119.14665 26052 ft 396 kts 317°
2026-04-21 21:27 35.34484 -119.16340 26055 ft 397 kts 317°
2026-04-21 21:27 35.36853 -119.17994 26059 ft 397 kts 317°
2026-04-21 21:28 35.39266 -119.19659 26092 ft 400 kts 319°
2026-04-21 21:28 35.41901 -119.20981 26087 ft 419 kts 331°
2026-04-21 21:28 35.47938 -119.21595 26086 ft 456 kts 358°
2026-04-21 21:29 35.51040 -119.20684 26081 ft 472 kts 12°
2026-04-21 21:29 35.54133 -119.19264 26080 ft 473 kts 13°
2026-04-21 21:29 35.57227 -119.17834 26082 ft 474 kts 13°
2026-04-21 21:29 35.60314 -119.16406 26084 ft 474 kts 13°
2026-04-21 21:30 35.63373 -119.14996 26100 ft 475 kts 13°
2026-04-21 21:30 35.66472 -119.13571 26091 ft 475 kts 13°
2026-04-21 21:30 35.69576 -119.12143 26090 ft 476 kts 13°
2026-04-21 21:30 35.72685 -119.10710 26092 ft 476 kts 13°
2026-04-21 21:31 35.75795 -119.09274 26094 ft 476 kts 13°
2026-04-21 21:31 35.78857 -119.07856 26090 ft 476 kts 13°
2026-04-21 21:31 35.81958 -119.06417 26022 ft 474 kts 13°
2026-04-21 21:31 35.85032 -119.05013 25753 ft 464 kts
2026-04-21 21:32 35.88118 -119.04087 25544 ft 449 kts 359°
2026-04-21 21:32 35.91182 -119.03786 25307 ft 435 kts 348°
2026-04-21 21:32 35.94146 -119.04049 25091 ft 418 kts 339°
2026-04-21 21:32 35.96895 -119.04787 24753 ft 401 kts 330°
2026-04-21 21:33 35.99480 -119.05935 24390 ft 390 kts 325°
2026-04-21 21:33 36.02001 -119.07146 24046 ft 387 kts 325°
2026-04-21 21:33 36.04502 -119.08342 23660 ft 384 kts 325°
2026-04-21 21:33 36.06991 -119.09529 23311 ft 381 kts 326°
2026-04-21 21:34 36.09461 -119.10711 22930 ft 376 kts 328°
2026-04-21 21:34 36.11860 -119.11852 22827 ft 363 kts 327°
2026-04-21 21:34 36.14192 -119.12958 22693 ft 359 kts 326°
2026-04-21 21:34 36.16505 -119.14063 22280 ft 360 kts 327°
2026-04-21 21:35 36.18843 -119.15183 21827 ft 360 kts 327°
2026-04-21 21:35 36.21183 -119.16304 21376 ft 359 kts 328°
2026-04-21 21:35 36.23516 -119.17424 20914 ft 359 kts 328°
2026-04-21 21:35 36.25855 -119.18549 20486 ft 360 kts 329°
2026-04-21 21:36 36.28197 -119.19676 19988 ft 361 kts 329°
2026-04-21 21:36 36.30544 -119.20811 19528 ft 362 kts 330°
2026-04-21 21:36 36.32898 -119.21939 19051 ft 363 kts 331°
2026-04-21 21:36 36.35237 -119.23053 18598 ft 364 kts 332°
2026-04-21 21:37 36.37602 -119.24181 18083 ft 365 kts 332°
2026-04-21 21:37 36.39982 -119.25320 17552 ft 365 kts 332°
2026-04-21 21:37 36.42342 -119.26467 17071 ft 363 kts 332°
2026-04-21 21:37 36.44682 -119.27622 16612 ft 361 kts 332°
2026-04-21 21:38 36.47027 -119.28771 16149 ft 360 kts 333°
2026-04-21 21:38 36.49327 -119.29871 15692 ft 359 kts 334°
2026-04-21 21:38 36.51657 -119.30973 15235 ft 357 kts 334°
2026-04-21 21:38 36.53970 -119.32069 14786 ft 355 kts 334°
2026-04-21 21:39 36.56271 -119.33166 14322 ft 353 kts 334°
2026-04-21 21:39 36.58559 -119.34264 13887 ft 352 kts 334°
2026-04-21 21:39 36.60835 -119.35363 13407 ft 350 kts 334°
2026-04-21 21:39 36.63109 -119.36466 12927 ft 349 kts 334°
2026-04-21 21:40 36.65368 -119.37567 12453 ft 349 kts 334°
2026-04-21 21:40 36.67625 -119.38667 11981 ft 348 kts 334°
2026-04-21 21:40 36.69874 -119.39762 11515 ft 346 kts 334°
2026-04-21 21:40 36.71967 -119.41102 11070 ft 338 kts 321°
2026-04-21 21:41 36.73760 -119.42951 10628 ft 331 kts 309°
2026-04-21 21:41 36.75177 -119.45174 10196 ft 325 kts 297°
2026-04-21 21:41 36.76409 -119.47542 9740 ft 324 kts 297°
2026-04-21 21:41 36.77645 -119.49891 9269 ft 322 kts 298°
2026-04-21 21:42 36.78860 -119.52173 8805 ft 313 kts 299°
2026-04-21 21:42 36.80046 -119.54393 8410 ft 299 kts 298°
2026-04-21 21:42 36.81168 -119.56510 8045 ft 285 kts 298°
2026-04-21 21:42 36.82241 -119.58539 7654 ft 276 kts 298°
2026-04-21 21:43 36.83280 -119.60507 7270 ft 266 kts 297°
2026-04-21 21:43 36.84261 -119.62372 6905 ft 254 kts 298°
2026-04-21 21:43 36.85212 -119.64183 6633 ft 245 kts 297°
2026-04-21 21:43 36.86143 -119.65970 6382 ft 245 kts 298°
2026-04-21 21:44 36.87073 -119.67750 6113 ft 244 kts 297°
2026-04-21 21:44 36.87989 -119.69495 5849 ft 241 kts 298°
2026-04-21 21:44 36.88903 -119.71233 5598 ft 238 kts 298°
2026-04-21 21:44 36.89810 -119.72955 5343 ft 236 kts 298°
2026-04-21 21:45 36.90707 -119.74666 5090 ft 235 kts 298°
2026-04-21 21:45 36.91599 -119.76374 4838 ft 234 kts 298°
2026-04-21 21:45 36.92493 -119.78081 4576 ft 235 kts 298°
2026-04-21 21:45 36.93375 -119.79767 4318 ft 234 kts 298°
2026-04-21 21:46 36.94266 -119.81469 4053 ft 236 kts 300°
2026-04-21 21:46 36.94974 -119.83303 3818 ft 233 kts 278°
2026-04-21 21:46 36.95031 -119.85281 3562 ft 225 kts 255°
2026-04-21 21:46 36.94472 -119.87075 3311 ft 219 kts 233°
2026-04-21 21:47 36.93421 -119.88428 3075 ft 216 kts 211°
2026-04-21 21:47 36.92088 -119.89184 2994 ft 212 kts 198°
2026-04-21 21:47 36.90681 -119.89769 2995 ft 209 kts 197°
2026-04-21 21:47 36.89299 -119.90049 3001 ft 196 kts 174°
2026-04-21 21:48 36.88028 -119.89509 2994 ft 191 kts 147°
2026-04-21 21:48 36.87128 -119.88339 2997 ft 185 kts 129°
2026-04-21 21:48 36.86402 -119.87048 3036 ft 181 kts 129°
2026-04-21 21:48 36.85678 -119.85774 2810 ft 183 kts 129°
2026-04-21 21:49 36.84945 -119.84490 2550 ft 178 kts 130°
2026-04-21 21:49 36.84254 -119.83267 2311 ft 165 kts 129°
2026-04-21 21:49 36.83628 -119.82158 2091 ft 148 kts 127°
2026-04-21 21:49 36.83061 -119.81157 1908 ft 135 kts 127°
2026-04-21 21:50 36.82525 -119.80219 1738 ft 133 kts 126°
2026-04-21 21:50 36.81972 -119.79256 1572 ft 137 kts 126°
2026-04-21 21:50 36.81418 -119.78292 1389 ft 135 kts 126°
2026-04-21 21:50 36.80891 -119.77369 1205 ft 124 kts 127°
2026-04-21 21:51 36.80393 -119.76500 1031 ft 125 kts 126°
2026-04-21 21:51 36.79876 -119.75607 890 ft 131 kts 127°
2026-04-21 21:51 36.79354 -119.74692 732 ft 129 kts 125°
2026-04-21 21:51 36.78846 -119.73784 527 ft 125 kts 125°
2026-04-21 21:52 36.78358 -119.72934 367 ft 118 kts 126°
2026-04-21 21:52 36.77917 -119.72167 338 ft 91 kts 125°
2026-04-21 21:52 36.77681 -119.71758 341 ft 28 kts 129°
2026-04-21 21:52 36.77542 -119.71614 340 ft 26 kts 152°
2026-04-21 21:53 36.77436 -119.71554 339 ft 16 kts 155°
2026-04-21 21:53 36.77325 -119.71526 337 ft 18 kts 204°
2026-04-21 21:53 36.77253 -119.71588 340 ft 10 kts 214°
2026-04-21 21:53 36.77195 -119.71651 339 ft 11 kts 256°
2026-04-21 21:54 36.77232 -119.71727 338 ft 11 kts 306°
2026-04-21 21:54 36.77282 -119.71817 339 ft 14 kts 304°
2026-04-21 21:54 36.77298 -119.71907 336 ft 7 kts 276°
2026-04-21 21:54 36.77271 -119.71954 339 ft 5 kts 217°
2026-04-21 21:55 36.77234 -119.71989 338 ft 8 kts 216°
2026-04-21 21:55 36.77191 -119.71984 339 ft 5 kts 134°
2026-04-21 21:55 36.77175 -119.71956 338 ft 4 kts 125°
2026-04-21 21:55 36.77163 -119.71935 341 ft 2 kts 125°
2026-04-21 21:56 36.77162 -119.71933 341 ft 0 kts 125°